When you browse on this site, cookies collect data to enhance your experience and personalize the content and advertising you see.
Visit our Privacy Policy to learn more. By continuing to use the site, you agree to this use of cookies and data.
EN

Hourly Weather Dighwara

Today, 5 August, Wednesday

Time Temperature Precipitation Wind Pressure Humidity
00:00 +36°C° 0 mm 3 mps 739 mmHg 62%
01:00 +36°C° 0.5 mm 3 mps 738 mmHg 65%
02:00 +35°C° 0.5 mm 3 mps 738 mmHg 68%
03:00 +34°C° 0.5 mm 3 mps 738 mmHg 71%
04:00 +34°C° 0.1 mm 3 mps 738 mmHg 72%
05:00 +34°C° 0.1 mm 4 mps 739 mmHg 72%
06:00 +33°C° 0.1 mm 4 mps 739 mmHg 73%
07:00 +34°C° 0.1 mm 5 mps 739 mmHg 70%
08:00 +34°C° 0.1 mm 6 mps 740 mmHg 68%
09:00 +34°C° 0.1 mm 6 mps 740 mmHg 66%
10:00 +36°C° 0.3 mm 7 mps 740 mmHg 62%
11:00 +38°C° 0.3 mm 7 mps 740 mmHg 58%
12:00 +39°C° 0.3 mm 7 mps 740 mmHg 53%
13:00 +39°C° 0.3 mm 7 mps 740 mmHg 53%
14:00 +40°C° 0.3 mm 7 mps 739 mmHg 52%
15:00 +40°C° 0.3 mm 7 mps 739 mmHg 52%
16:00 +39°C° 0.1 mm 7 mps 739 mmHg 54%
17:00 +39°C° 0.1 mm 7 mps 738 mmHg 57%
18:00 +38°C° 0.1 mm 7 mps 738 mmHg 60%
19:00 +36°C° 0.4 mm 7 mps 739 mmHg 63%
20:00 +35°C° 0.4 mm 7 mps 740 mmHg 66%
21:00 +34°C° 0.4 mm 7 mps 740 mmHg 69%
22:00 +34°C° 0 mm 8 mps 740 mmHg 71%
23:00 +33°C° 0 mm 8 mps 741 mmHg 73%

Tomorrow, 6 August, Thursday

Time Temperature Precipitation Wind Pressure Humidity
00:00 +32°C° 0 mm 9 mps 741 mmHg 75%
01:00 +32°C° 0 mm 9 mps 741 mmHg 75%
02:00 +32°C° 0 mm 9 mps 741 mmHg 76%
03:00 +32°C° 0 mm 9 mps 741 mmHg 76%
04:00 +31°C° 0 mm 9 mps 741 mmHg 76%
05:00 +31°C° 0 mm 9 mps 742 mmHg 77%
06:00 +31°C° 0 mm 9 mps 742 mmHg 77%
07:00 +31°C° 0 mm 9 mps 743 mmHg 75%
08:00 +32°C° 0 mm 9 mps 744 mmHg 74%
09:00 +33°C° 0 mm 9 mps 745 mmHg 72%
10:00 +34°C° 0 mm 9 mps 744 mmHg 67%
11:00 +35°C° 0 mm 9 mps 744 mmHg 61%
12:00 +38°C° 0 mm 8 mps 744 mmHg 56%
13:00 +39°C° 0 mm 8 mps 744 mmHg 54%
14:00 +39°C° 0 mm 7 mps 743 mmHg 51%
15:00 +40°C° 0 mm 7 mps 743 mmHg 49%
16:00 +39°C° 0 mm 6 mps 742 mmHg 51%
17:00 +39°C° 0 mm 5 mps 742 mmHg 53%
18:00 +37°C° 0 mm 5 mps 742 mmHg 55%
19:00 +37°C° 0.1 mm 4 mps 743 mmHg 59%
20:00 +36°C° 0.1 mm 4 mps 743 mmHg 62%
21:00 +35°C° 0.1 mm 4 mps 744 mmHg 66%
22:00 +34°C° 0.7 mm 4 mps 744 mmHg 68%
23:00 +34°C° 0.7 mm 3 mps 744 mmHg 71%

Day after tomorrow, 7 August, Friday

Time Temperature Precipitation Wind Pressure Humidity
00:00 +34°C° 0.7 mm 3 mps 744 mmHg 74%
01:00 +33°C° 1.5 mm 3 mps 744 mmHg 75%
02:00 +32°C° 1.5 mm 2 mps 744 mmHg 77%
03:00 +32°C° 1.5 mm 2 mps 744 mmHg 78%
04:00 +32°C° 0.2 mm 2 mps 744 mmHg 79%
05:00 +31°C° 0.2 mm 1 mps 744 mmHg 80%
06:00 +31°C° 0.2 mm 1 mps 744 mmHg 80%
07:00 +32°C° 0.1 mm 1 mps 744 mmHg 74%
08:00 +34°C° 0.1 mm 1 mps 745 mmHg 69%
09:00 +35°C° 0.1 mm 1 mps 745 mmHg 63%
10:00 +36°C° 0.1 mm 1 mps 745 mmHg 59%
11:00 +37°C° 0.1 mm 1 mps 745 mmHg 56%
12:00 +38°C° 0.1 mm 2 mps 744 mmHg 52%
13:00 +39°C° 0.2 mm 1 mps 744 mmHg 52%
14:00 +39°C° 0.2 mm 1 mps 743 mmHg 51%
15:00 +39°C° 0.2 mm 1 mps 743 mmHg 51%
16:00 +39°C° 0 mm 1 mps 742 mmHg 52%
17:00 +37°C° 0 mm 1 mps 742 mmHg 54%
18:00 +37°C° 0 mm 1 mps 742 mmHg 56%
19:00 +37°C° 0 mm 1 mps 742 mmHg 58%
20:00 +36°C° 0 mm 1 mps 743 mmHg 60%
21:00 +33°C° 0 mm 0 mps 743 mmHg 63%
22:00 +35°C° 0.1 mm 1 mps 743 mmHg 64%
23:00 +35°C° 0.1 mm 1 mps 743 mmHg 65%

8 August, Saturday

Time Temperature Precipitation Wind Pressure Humidity
00:00 +34°C° 0.1 mm 1 mps 743 mmHg 66%
01:00 +34°C° 0.3 mm 1 mps 743 mmHg 68%
02:00 +35°C° 0.3 mm 2 mps 742 mmHg 70%
03:00 +34°C° 0.3 mm 2 mps 742 mmHg 71%
04:00 +34°C° 0 mm 2 mps 742 mmHg 72%
05:00 +34°C° 0 mm 2 mps 742 mmHg 73%
06:00 +33°C° 0 mm 1 mps 742 mmHg 74%
07:00 +35°C° 0.4 mm 2 mps 742 mmHg 69%
08:00 +36°C° 0.4 mm 2 mps 743 mmHg 64%
09:00 +37°C° 0.4 mm 2 mps 743 mmHg 59%
10:00 +38°C° 0.8 mm 2 mps 743 mmHg 56%
11:00 +39°C° 0.8 mm 2 mps 743 mmHg 53%
12:00 +39°C° 0.8 mm 2 mps 743 mmHg 50%
13:00 +40°C° 0 mm 1 mps 742 mmHg 50%
14:00 +40°C° 0 mm 1 mps 742 mmHg 49%
15:00 +37°C° 0 mm 0 mps 741 mmHg 49%
16:00 +39°C° 0 mm 1 mps 741 mmHg 51%
17:00 +39°C° 0 mm 1 mps 741 mmHg 54%
18:00 +37°C° 0 mm 1 mps 740 mmHg 56%
19:00 +37°C° 0.1 mm 1 mps 741 mmHg 58%
20:00 +36°C° 0.1 mm 1 mps 741 mmHg 61%
21:00 +37°C° 0.1 mm 2 mps 742 mmHg 63%
22:00 +36°C° 0 mm 2 mps 742 mmHg 64%
23:00 +36°C° 0 mm 2 mps 742 mmHg 66%

9 August, Sunday

Time Temperature Precipitation Wind Pressure Humidity
00:00 +36°C° 0 mm 2 mps 742 mmHg 68%
01:00 +35°C° 0.8 mm 2 mps 741 mmHg 70%
02:00 +35°C° 0.8 mm 2 mps 741 mmHg 72%
03:00 +34°C° 0.8 mm 2 mps 741 mmHg 74%
04:00 +34°C° 1.7 mm 3 mps 741 mmHg 75%
05:00 +33°C° 1.7 mm 3 mps 741 mmHg 76%
06:00 +33°C° 1.7 mm 3 mps 742 mmHg 78%
07:00 +34°C° 1.3 mm 3 mps 742 mmHg 74%
08:00 +35°C° 1.3 mm 3 mps 742 mmHg 70%
09:00 +36°C° 1.3 mm 3 mps 743 mmHg 66%
10:00 +35°C° 0.9 mm 4 mps 743 mmHg 67%
11:00 +35°C° 0.9 mm 4 mps 743 mmHg 69%
12:00 +35°C° 0.9 mm 5 mps 743 mmHg 71%
13:00 +35°C° 0.4 mm 5 mps 743 mmHg 70%
14:00 +35°C° 0.4 mm 6 mps 742 mmHg 70%
15:00 +35°C° 0.4 mm 6 mps 742 mmHg 69%
16:00 +35°C° 0.6 mm 6 mps 741 mmHg 69%
17:00 +35°C° 0.6 mm 5 mps 741 mmHg 69%
18:00 +35°C° 0.6 mm 5 mps 741 mmHg 69%
19:00 +34°C° 0 mm 5 mps 742 mmHg 72%
20:00 +34°C° 0 mm 5 mps 742 mmHg 75%
21:00 +33°C° 0 mm 5 mps 743 mmHg 77%
22:00 +33°C° 0 mm 5 mps 743 mmHg 78%
23:00 +33°C° 0 mm 5 mps 743 mmHg 78%

10 August, Monday

Time Temperature Precipitation Wind Pressure Humidity
00:00 +33°C° 0 mm 5 mps 743 mmHg 79%
01:00 +32°C° 0.1 mm 5 mps 743 mmHg 80%
02:00 +32°C° 0.1 mm 4 mps 742 mmHg 81%
03:00 +32°C° 0.1 mm 4 mps 742 mmHg 82%
04:00 +30°C° 0.2 mm 4 mps 742 mmHg 84%
05:00 +30°C° 0.2 mm 4 mps 742 mmHg 86%
06:00 +30°C° 0.2 mm 4 mps 742 mmHg 87%
07:00 +32°C° 0.2 mm 4 mps 743 mmHg 83%
08:00 +33°C° 0.2 mm 4 mps 743 mmHg 78%
09:00 +34°C° 0.2 mm 4 mps 743 mmHg 73%
10:00 +35°C° 0.2 mm 4 mps 743 mmHg 66%
11:00 +37°C° 0.2 mm 4 mps 743 mmHg 58%
12:00 +38°C° 0.2 mm 3 mps 743 mmHg 51%
13:00 +40°C° 0 mm 4 mps 742 mmHg 49%
14:00 +40°C° 0 mm 4 mps 742 mmHg 48%
15:00 +41°C° 0 mm 4 mps 741 mmHg 47%
16:00 +39°C° 0 mm 3 mps 741 mmHg 49%
17:00 +39°C° 0 mm 3 mps 741 mmHg 51%
18:00 +38°C° 0 mm 3 mps 740 mmHg 54%
19:00 +37°C° 0 mm 3 mps 741 mmHg 56%
20:00 +36°C° 0 mm 3 mps 741 mmHg 59%
21:00 +36°C° 0 mm 3 mps 742 mmHg 61%
22:00 +35°C° 0 mm 3 mps 742 mmHg 63%
23:00 +35°C° 0 mm 3 mps 742 mmHg 65%
Show more